Flag for Czech Republic Weather past 2 weeks in Ostrava, Czech Republic

Now
82 °F

Passing clouds.


Feels Like: 81 °F
Forecast: 64 / 90 °F
Wind: 7 mph from Southwest

Location: Ostrava / Mosnov

Current Time: Jul 4, 2015 at 12:31:50 PM

Latest Report: Jul 4, 2015 at 11:00 AM


Visibility: 22 mi

Pressure: 30.23 "Hg

Humidity: 39%

Dew point: 55 °F

Location of OstravaLocation

Historic Weather in Ostrava — Graph

°F

Ostrava temperature yesterday

Maximum temperature yesterday: 84 °F (at 5:00 PM)
Minimum temperature yesterday: 56 °F (at 4:00 AM)
Average temperature yesterday: 71 °F

Past Weeks' High & Low Weather Summary

 TemperatureHumidityPressure
High84 °F (Jul 3, 5:00 PM)99% (Jun 29, 7:00 AM)30.36 "Hg (Jun 29, 7:00 AM)
Low44 °F (Jun 22, 5:00 AM)32% (Jul 3, 6:00 PM)29.72 "Hg (Jun 23, 5:00 AM)
Average61 °F70%30.10 "Hg
* Reported Jun 19 11:00 AM — Jul 4 11:00 AM, Ostrava, Weather by CustomWeather, © 2015

Note: Actual official high and low records may vary slightly from our data, if they occured in-between our weather recording intervals... More about our weather records

Advertising

Ostrava weather history for previous 24 hours

 ConditionsComfort  
Time TempWeatherWind HumidityBarometerVisibility
11:00 AM
Sat, Jul 4
82 °FPassing clouds.7 mph39%30.23 "Hg22 mi
10:00 AM80 °FPassing clouds.6 mph43%30.24 "Hg19 mi
9:00 AM76 °FPassing clouds.N/A52%30.25 "Hg19 mi
8:00 AM70 °FPassing clouds.2 mph66%30.27 "Hg16 mi
7:00 AM65 °FPassing clouds.2 mph78%30.28 "Hg14 mi
6:00 AM59 °FSunny.2 mph88%30.29 "Hg19 mi
5:00 AM61 °FSunny.3 mph85%30.29 "Hg19 mi
4:00 AM60 °FClear.2 mph89%30.29 "Hg19 mi
3:00 AM61 °FClear.1 mph86%30.30 "Hg16 mi
2:00 AM60 °FClear.2 mph85%30.32 "Hg16 mi
1:00 AM65 °FClear.2 mph77%30.31 "Hg16 mi
12:00 AM66 °FClear.N/A74%30.32 "Hg22 mi
11:00 PM
Fri, Jul 3
67 °FClear.2 mph68%30.31 "Hg22 mi
10:00 PM71 °FClear.2 mph57%30.30 "Hg22 mi
9:00 PM76 °FClear.2 mph50%30.28 "Hg22 mi
8:00 PM79 °FSunny.3 mph45%30.27 "Hg22 mi
7:00 PM83 °FPassing clouds.N/A34%30.27 "Hg22 mi
6:00 PM83 °FPassing clouds.N/A32%30.27 "Hg22 mi
5:00 PM84 °FPassing clouds.N/A33%30.28 "Hg22 mi
4:00 PM83 °FScattered clouds.N/A35%30.29 "Hg25 mi
3:00 PM82 °FScattered clouds.N/A39%30.30 "Hg25 mi
2:00 PM81 °FScattered clouds.3 mph37%30.31 "Hg25 mi
1:00 PM80 °FScattered clouds.N/A37%30.32 "Hg25 mi
12:00 PM79 °FPassing clouds.N/A38%30.32 "Hg25 mi
Weather by CustomWeather, © 2015

See weather overviewHow to use our weather pages